Stations météo

réclame
Mon MeteoGroup
Leucate/Semaphore, France (7666): Température de l'air & dewpoint: 17.09.2017 21:00:00 - 23.09.2017 21:00:00 (CEST)Leucate/Semaphore, France (7666): Vitesse du vent & gusts: 17.09.2017 21:00:00 - 23.09.2017 21:00:00 (CEST)Leucate/Semaphore, France (7666): Direction du vent: 17.09.2017 21:00:00 - 23.09.2017 21:00:00 (CEST)Leucate/Semaphore, France (7666): reduced air pressure: 17.09.2017 21:00:00 - 23.09.2017 21:00:00 (CEST)Leucate/Semaphore, France (7666): visibility: 17.09.2017 21:00:00 - 23.09.2017 21:00:00 (CEST)Leucate/Semaphore, France (7666): Quantités de précipitations: 17.09.2017 21:00:00 - 23.09.2017 21:00:00 (CEST)
Date & Time tt [°C] td [°C] ff [km/h] ff [knt] fx [km/h] fx [knt] dd ppp [hPa] vv [km] rr [mm]
23.09.2017 21:00:00 17,8 16,0 13 7 19 10 SW 1019,4 - 0,0
23.09.2017 20:00:00 18,2 16,4 16 8 20 11 S 1019,3 15 0,0
23.09.2017 19:00:00 18,6 16,6 15 8 19 10 S 1019,4 - 0,0
23.09.2017 18:00:00 19,1 16,5 13 7 16 8 SSE 1019,5 - 0,0
23.09.2017 17:00:00 19,1 16,5 13 7 18 10 SE 1019,8 18 0,0
23.09.2017 16:00:00 19,5 16,3 12 6 22 12 E 1020,2 - 0,0
23.09.2017 15:00:00 19,2 16,2 10 5 23 12 ENE 1020,6 - 0,0
23.09.2017 14:00:00 19,6 15,9 11 6 20 11 E 1020,7 18 0,0
23.09.2017 13:00:00 19,4 15,9 8 5 22 12 E 1020,9 - 0,0
23.09.2017 12:00:00 18,3 15,9 10 6 19 11 N 1021,4 - 0,0
23.09.2017 11:00:00 18,2 16,0 5 3 13 7 NNE 1021,5 12 0,0
23.09.2017 10:00:00 16,8 15,7 8 5 14 8 NNW 1021,6 - 0,0
23.09.2017 09:00:00 16,2 15,2 9 5 19 10 NNW 1021,4 - 0,0
23.09.2017 08:00:00 15,9 14,9 6 3 13 7 NNW 1020,9 6 0,0
23.09.2017 07:00:00 16,0 15,0 10 5 21 12 NNW 1020,8 - 0,0
23.09.2017 06:00:00 17,5 15,1 11 6 24 13 NNE 1020,6 - 0,0
23.09.2017 05:00:00 17,6 16,6 4 2 16 9 NNE 1020,3 - 0,0
23.09.2017 04:00:00 16,4 15,3 9 5 11 6 N 1020,6 - 0,0
23.09.2017 03:00:00 17,4 16,3 9 5 11 6 N 1021,1 - 0,0
23.09.2017 02:00:00 17,9 16,6 6 3 9 5 NNE 1021,0 - 0,0
23.09.2017 01:00:00 17,7 16,2 3 1 12 7 NNE 1021,2 - 0,0
23.09.2017 00:00:00 17,3 15,1 9 5 15 8 N 1021,1 - 0,0
22.09.2017 23:00:00 18,3 15,2 11 6 18 10 WSW 1020,9 - 0,0
22.09.2017 22:00:00 18,1 15,9 11 6 16 9 SW 1020,7 - 0,0
22.09.2017 21:00:00 18,3 15,7 6 3 12 7 SSW 1020,4 - 0,0
22.09.2017 20:00:00 18,4 15,6 4 2 18 10 ESE 1019,3 18 0,0
22.09.2017 19:00:00 18,8 15,5 13 7 24 13 S 1019,5 - 0,0
22.09.2017 18:00:00 18,6 14,7 14 7 16 9 S 1020,2 - 0,0
22.09.2017 17:00:00 19,4 15,1 13 7 17 9 S 1020,2 - 0,0
22.09.2017 16:00:00 18,9 14,4 14 8 19 11 SE 1020,1 - 0,0
22.09.2017 15:00:00 19,3 15,0 15 8 22 12 ESE 1020,0 - 0,0
22.09.2017 14:00:00 19,4 14,4 14 8 18 10 SE 1020,3 - 0,0
22.09.2017 13:00:00 19,3 14,5 17 9 19 10 SSE 1020,5 - 0,0
22.09.2017 12:00:00 19,8 14,2 14 8 18 10 S 1020,6 - 0,0
22.09.2017 11:00:00 18,9 13,7 10 5 14 7 S 1020,6 - 0,0
22.09.2017 10:00:00 18,7 12,9 9 5 14 7 S 1020,4 - 0,0
22.09.2017 09:00:00 16,2 12,2 4 2 9 5 SW 1020,0 - 0,0
22.09.2017 08:00:00 14,2 11,5 6 3 7 4 SW 1019,8 25 0,0
22.09.2017 07:00:00 14,0 10,8 3 2 4 2 WSW 1019,5 - 0,0
22.09.2017 06:00:00 13,6 10,4 4 2 10 6 NW 1019,3 - 0,0
22.09.2017 05:00:00 13,8 10,0 7 4 15 8 N 1019,5 25 0,0
22.09.2017 04:00:00 13,2 9,8 9 5 13 7 NNW 1019,4 - 0,0
22.09.2017 03:00:00 13,3 10,7 9 5 12 6 NNW 1019,6 - 0,0
22.09.2017 02:00:00 14,6 11,6 4 2 7 4 N 1019,8 - 0,0
22.09.2017 01:00:00 13,9 11,1 5 3 6 3 WNW 1019,6 - 0,0
22.09.2017 00:00:00 15,6 12,7 4 2 6 3 WSW 1019,4 - 0,0
21.09.2017 23:00:00 15,6 11,8 3 1 6 3 S 1019,2 - 0,0
21.09.2017 22:00:00 16,0 12,2 6 3 8 4 SSW 1018,9 - 0,0
21.09.2017 21:00:00 16,2 11,8 5 3 8 4 SSW 1018,5 - 0,0
21.09.2017 20:00:00 16,6 11,5 6 3 14 8 SSW 1018,1 25 0,0
21.09.2017 19:00:00 17,3 11,8 9 5 14 8 SSE 1017,6 - 0,0
21.09.2017 18:00:00 17,9 11,2 9 5 14 8 SE 1017,3 - 0,0
21.09.2017 17:00:00 18,4 10,7 11 6 16 9 SE 1017,4 25 0,0
21.09.2017 16:00:00 18,4 11,2 10 5 14 8 ESE 1017,6 - 0,0
21.09.2017 15:00:00 18,5 10,6 9 5 14 8 ESE 1017,9 - 0,0
21.09.2017 14:00:00 18,6 9,9 9 5 16 9 ESE 1018,3 - 0,0
21.09.2017 13:00:00 18,8 9,6 10 5 19 10 ESE 1018,7 - 0,0
21.09.2017 12:00:00 18,8 10,6 9 5 16 8 SE 1019,1 - 0,0
21.09.2017 11:00:00 18,6 9,6 5 3 9 5 SE 1019,3 25 0,0
21.09.2017 10:00:00 18,1 10,2 3 1 8 4 NE 1019,0 - 0,0
21.09.2017 09:00:00 17,2 10,8 4 2 10 5 NNE 1018,7 - 0,0
21.09.2017 08:00:00 16,8 10,9 7 4 27 14 NE 1018,5 25 0,0
21.09.2017 07:00:00 17,1 9,5 16 9 29 16 E 1018,0 - 0,0
21.09.2017 06:00:00 17,3 9,2 19 10 31 17 E 1018,0 - 0,0
21.09.2017 05:00:00 17,5 9,1 21 11 29 16 E 1017,9 25 0,0
21.09.2017 04:00:00 17,6 9,0 11 6 33 18 ENE 1018,1 - 0,0
21.09.2017 03:00:00 15,7 10,0 19 11 26 14 N 1018,4 - 0,0
21.09.2017 02:00:00 16,1 9,0 14 8 26 14 N 1018,6 - 0,0
21.09.2017 01:00:00 16,3 6,7 10 5 21 11 NNW 1018,7 - 0,0
21.09.2017 00:00:00 17,0 5,3 15 8 19 10 W 1018,3 - 0,0
20.09.2017 23:00:00 17,8 4,7 2 1 8 4 ENE 1018,2 - 0,0
20.09.2017 22:00:00 17,8 5,0 8 5 14 7 WNW 1018,1 - 0,0
20.09.2017 21:00:00 18,9 8,8 4 2 19 10 SSW 1018,2 - 0,0
20.09.2017 20:00:00 18,8 12,5 13 7 21 11 S 1017,9 30 0,0
20.09.2017 19:00:00 19,3 12,1 18 10 25 13 S 1017,5 - 0,0
20.09.2017 18:00:00 24,7 1,5 16 8 29 16 WNW 1017,5 - 0,0
20.09.2017 17:00:00 25,2 2,0 16 9 32 17 WNW 1017,7 30 0,0
20.09.2017 16:00:00 24,7 4,4 18 10 29 16 NNW 1018,2 - 0,0
20.09.2017 15:00:00 23,8 5,6 16 9 32 18 NNW 1018,8 - 0,0
20.09.2017 14:00:00 22,8 4,8 23 12 46 25 NNW 1019,6 30 0,0
20.09.2017 13:00:00 21,4 5,3 32 17 50 27 NNW 1019,8 - 0,0
20.09.2017 12:00:00 20,7 6,2 28 15 49 26 NW 1020,4 - 0,0
20.09.2017 11:00:00 19,4 6,5 24 13 48 26 NW 1021,0 - 0,0
20.09.2017 10:00:00 17,8 6,9 18 10 38 21 NW 1021,5 - 0,0
20.09.2017 09:00:00 15,7 6,9 16 9 44 24 WNW 1021,3 - 0,0
20.09.2017 08:00:00 14,2 6,5 18 10 30 16 WNW 1021,4 30 0,0
20.09.2017 07:00:00 13,7 6,5 19 10 38 21 WNW 1021,4 - 0,0
20.09.2017 06:00:00 13,5 6,6 16 8 30 16 WNW 1021,6 - 0,0
20.09.2017 05:00:00 14,1 6,7 18 10 32 18 NW 1021,7 15 0,0
20.09.2017 04:00:00 14,6 6,7 18 10 36 19 NW 1021,8 - 0,0
20.09.2017 03:00:00 14,8 6,6 20 11 41 22 WNW 1021,9 - 0,0
20.09.2017 02:00:00 14,7 7,0 18 10 35 19 WNW 1022,3 - 0,0
20.09.2017 01:00:00 15,2 7,0 18 10 33 18 NW 1022,4 - 0,0
20.09.2017 00:00:00 15,4 7,7 15 8 29 16 NW 1022,7 - 0,0
19.09.2017 23:00:00 15,3 8,1 16 9 27 15 NW 1022,5 - 0,0
19.09.2017 22:00:00 16,1 8,6 16 9 33 18 NW 1022,2 - 0,0
19.09.2017 21:00:00 16,9 8,3 16 8 48 26 NW 1021,8 - 0,0
19.09.2017 20:00:00 18,2 7,9 31 17 54 29 NNW 1020,5 30 0,0
19.09.2017 19:00:00 20,0 6,0 32 17 66 35 NW 1020,0 - 0,0
19.09.2017 18:00:00 21,3 5,2 28 15 73 40 NW 1019,7 - 0,0
19.09.2017 17:00:00 20,8 7,1 33 18 71 38 NW 1019,9 30 0,0
19.09.2017 16:00:00 21,7 6,4 34 18 68 37 NW 1019,8 - 0,0
19.09.2017 15:00:00 20,1 5,7 37 20 73 40 NW 1020,2 - 0,0
19.09.2017 14:00:00 20,1 6,1 32 17 65 35 NW 1020,6 30 0,0
19.09.2017 13:00:00 19,9 7,3 29 16 60 33 NW 1020,8 - 0,0
19.09.2017 12:00:00 19,5 8,2 26 14 66 35 NW 1021,1 - 0,0
19.09.2017 11:00:00 17,8 9,4 26 14 56 31 NW 1021,6 30 0,0
19.09.2017 10:00:00 16,8 9,7 27 15 53 29 NW 1021,6 - 0,0
19.09.2017 09:00:00 14,8 9,8 21 11 44 24 NW 1021,3 - 0,0
19.09.2017 08:00:00 13,4 9,6 19 11 38 20 NW 1021,2 25 0,0
19.09.2017 07:00:00 13,5 9,5 18 10 38 20 NW 1021,0 - 0,0
19.09.2017 06:00:00 13,9 9,5 22 12 40 21 NW 1020,6 - 0,0
19.09.2017 05:00:00 14,3 9,7 22 12 42 23 NW 1020,1 18 0,0
19.09.2017 04:00:00 14,3 10,3 20 11 38 20 NW 1020,0 - 0,0
19.09.2017 03:00:00 14,5 10,7 16 8 28 15 NW 1020,2 - 0,0
19.09.2017 02:00:00 14,6 10,4 16 9 32 18 NW 1020,1 - 0,0
19.09.2017 01:00:00 14,9 10,7 19 10 36 20 NW 1019,8 - 0,0
19.09.2017 00:00:00 15,1 10,3 20 11 41 22 NW 1020,3 - 0,0
18.09.2017 23:00:00 15,6 10,1 23 12 45 24 NW 1020,0 - 0,0
18.09.2017 22:00:00 15,9 11,1 25 13 41 22 WNW 1019,4 - 0,0
18.09.2017 21:00:00 15,9 10,6 23 12 39 21 WNW 1019,1 - 0,0
18.09.2017 20:00:00 16,4 10,5 17 9 39 21 WNW 1018,2 30 0,0
18.09.2017 19:00:00 17,8 11,4 21 11 52 28 WNW 1017,4 - 0,0
18.09.2017 18:00:00 18,9 11,9 26 14 61 33 NW 1016,4 - 0,0
18.09.2017 17:00:00 18,7 11,3 23 12 42 23 NW 1016,0 30 0,0
18.09.2017 16:00:00 17,4 12,7 7 4 18 10 SE 1016,2 - 0,0
18.09.2017 15:00:00 17,8 11,8 3 2 18 10 NNW 1016,6 - 0,0
18.09.2017 14:00:00 16,6 12,1 7 4 18 10 NW 1017,3 15 0,0
18.09.2017 13:00:00 15,5 13,3 6 3 22 12 NW 1017,5 - 0,2
18.09.2017 12:00:00 14,7 12,9 14 8 24 13 NNW 1017,7 - 0,4
18.09.2017 11:00:00 14,1 12,5 12 7 23 12 NNW 1017,9 12 0,6
18.09.2017 10:00:00 13,9 11,8 11 6 23 13 NW 1017,6 - 0,2
18.09.2017 09:00:00 15,2 10,6 7 4 24 13 NW 1017,3 - 0,0
18.09.2017 08:00:00 15,4 10,0 11 6 20 11 NW 1017,0 18 0,0
18.09.2017 07:00:00 15,1 9,5 5 3 16 9 NW 1016,8 - 0,0
18.09.2017 06:00:00 15,5 9,6 6 4 13 7 NNW 1016,8 - 0,0
18.09.2017 05:00:00 16,0 9,2 4 2 19 11 NNW 1016,9 - 0,0
18.09.2017 04:00:00 16,0 9,2 2 1 31 17 SSE 1017,1 - 0,0
18.09.2017 03:00:00 16,4 9,1 15 8 39 21 NW 1017,1 - 0,0
18.09.2017 02:00:00 17,1 9,0 14 8 31 17 NW 1017,9 - 0,0
18.09.2017 01:00:00 17,3 9,0 10 6 29 15 NW 1018,4 - 0,0
18.09.2017 00:00:00 17,0 9,7 14 8 29 16 NW 1018,6 - 0,0
17.09.2017 23:00:00 17,3 9,5 12 6 29 16 NW 1018,7 - 0,0
17.09.2017 22:00:00 17,7 9,1 13 7 27 15 NW 1018,6 - 0,0
17.09.2017 21:00:00 17,8 9,2 15 8 32 17 NW 1018,0 - 0,0

tt = Température de l'air
td = dewpoint
ff = Vitesse du vent
fx = gusts
dd = Direction du vent
ppp = reduced air pressure
vv = visibility
rr = Quantités de précipitations

stations d'obs. à proximité